QPF
0.00 0.00 0.01 0.03 0.05 0.11 0.13 0.09 0.05 0.05 0.03 0.01 0.00 0.01 0.06 0.10 0.10 0.04 0.11 0.03 0.16 0.34 0.05 0.00 0.00 0.00 0.00 0.00 0.00 0.00 0.00 0.00 0.00 0.00 0.00 0.00 0.00 0.00 0.01 0.00 0.00 0.00 0.00
0.00 0.00 0.00 0.02 0.04 0.05 0.11 0.16 0.11 0.10 0.08 0.07 0.04 0.04 0.05 0.12 0.09 0.04 0.04 0.05 0.08 0.22 0.28 0.00 0.00 0.00 0.00 0.00 0.00 0.00 0.00 0.00 0.00 0.00 0.00 0.00 0.00 0.00 0.00 0.00 0.00 0.00 0.00
0.00 0.00 0.00 0.00 0.03 0.04 0.06 0.11 0.13 0.14 0.11 0.08 0.04 0.04 0.03 0.10 0.11 0.03 0.02 0.05 0.08 0.14 0.20 0.08 0.00 0.00 0.00 0.00 0.00 0.00 0.00 0.00 0.00 0.00 0.00 0.00 0.00 0.00 0.00 0.00 0.00 0.00 0.00
0.00 0.00 0.00 0.00 0.00 0.02 0.03 0.03 0.04 0.08 0.11 0.12 0.08 0.05 0.04 0.10 0.13 0.07 0.02 0.03 0.07 0.19 0.28 0.19 0.01 0.00 0.00 0.00 0.00 0.00 0.00 0.00 0.00 0.00 0.00 0.00 0.00 0.00 0.00 0.00 0.00 0.00 0.00
0.00 0.00 0.00 0.00 0.00 0.00 0.02 0.01 0.01 0.01 0.02 0.06 0.11 0.12 0.05 0.04 0.11 0.14 0.04 0.02 0.11 0.06 0.19 0.20 0.06 0.00 0.00 0.00 0.00 0.00 0.00 0.00 0.00 0.00 0.00 0.00 0.00 0.00 0.00 0.00 0.00 0.00 0.00
0.00 0.00 0.00 0.00 0.00 0.00 0.00 0.01 0.01 0.00 0.00 0.01 0.01 0.08 0.10 0.07 0.07 0.11 0.09 0.05 0.04 0.06 0.04 0.14 0.10 0.00 0.00 0.00 0.00 0.00 0.00 0.00 0.00 0.00 0.00 0.00 0.00 0.00 0.00 0.00 0.00 0.00 0.00
0.00 0.00 0.00 0.00 0.00 0.00 0.00 0.00 0.00 0.00 0.01 0.01 0.01 0.02 0.05 0.07 0.05 0.03 0.14 0.07 0.06 0.07 0.07 0.04 0.09 0.00 0.00 0.00 0.00 0.00 0.00 0.00 0.00 0.00 0.00 0.00 0.00 0.00 0.00 0.00 0.00 0.00 0.00
0.00 0.00 0.00 0.00 0.00 0.00 0.00 0.00 0.00 0.00 0.01 0.01 0.02 0.01 0.01 0.03 0.03 0.01 0.03 0.11 0.10 0.08 0.11 0.08 0.03 0.00 0.00 0.00 0.00 0.00 0.00 0.00 0.00 0.00 0.00 0.00 0.00 0.00 0.00 0.00 0.00 0.00 0.00
0.00 0.00 0.00 0.00 0.00 0.00 0.00 0.00 0.00 0.00 0.00 0.00 0.00 0.01 0.01 0.00 0.01 0.04 0.03 0.05 0.08 0.09 0.12 0.12 0.05 0.00 0.00 0.00 0.00 0.00 0.00 0.00 0.01 0.00 0.00 0.00 0.00 0.00 0.00 0.00 0.00 0.00 0.00
0.00 0.00 0.00 0.00 0.00 0.00 0.00 0.00 0.00 0.00 0.00 0.00 0.00 0.00 0.00 0.01 0.00 0.03 0.07 0.06 0.07 0.09 0.10 0.13 0.10 0.05 0.01 0.00 0.00 0.00 0.00 0.00 0.00 0.00 0.00 0.00 0.00 0.00 0.00 0.00 0.00 0.00 0.00
0.00 0.00 0.00 0.00 0.00 0.00 0.00 0.00 0.00 0.00 0.00 0.00 0.00 0.00 0.00 0.00 0.01 0.00 0.02 0.02 0.03 0.06 0.10 0.10 0.12 0.10 0.05 0.01 0.00 0.00 0.00 0.00 0.00 0.00 0.00 0.00 0.00 0.00 0.00 0.00 0.00 0.00 0.00
0.00 0.00 0.00 0.00 0.00 0.00 0.00 0.00 0.00 0.00 0.00 0.00 0.00 0.00 0.00 0.00 0.01 0.01 0.00 0.01 0.00 0.01 0.07 0.12 0.09 0.06 0.07 0.05 0.01 0.00 0.00 0.00 0.00 0.00 0.00 0.00 0.00 0.00 0.00 0.00 0.00 0.00 0.00
0.00 0.00 0.00 0.00 0.00 0.00 0.00 0.00 0.00 0.00 0.00 0.00 0.00 0.00 0.00 0.00 0.00 0.00 0.00 0.00 0.01 0.01 0.01 0.05 0.12 0.05 0.04 0.05 0.03 0.01 0.00 0.00 0.00 0.00 0.00 0.00 0.00 0.00 0.00 0.00 0.00 0.00 0.00
0.00 0.00 0.00 0.01 0.00 0.00 0.01 0.00 0.00 0.00 0.00 0.00 0.00 0.00 0.00 0.00 0.00 0.00 0.01 0.00 0.01 0.06 0.06 0.02 0.04 0.05 0.01 0.00 0.00 0.02 0.00 0.00 0.00 0.00 0.00 0.00 0.00 0.00 0.00 0.00 0.00 0.00 0.00
0.00 0.00 0.00 0.00 0.00 0.00 0.01 0.00 0.00 0.00 0.00 0.00 0.00 0.00 0.00 0.00 0.00 0.00 0.01 0.01 0.00 0.03 0.06 0.06 0.03 0.04 0.04 0.00 0.00 0.00 0.00 0.00 0.00 0.00 0.00 0.00 0.00 0.00 0.00 0.00 0.00 0.00 0.00
0.00 0.00 0.00 0.00 0.00 0.00 0.00 0.00 0.00 0.00 0.00 0.00 0.00 0.00 0.00 0.00 0.00 0.00 0.00 0.00 0.01 0.01 0.02 0.05 0.07 0.06 0.02 0.01 0.01 0.00 0.00 0.01 0.00 0.00 0.00 0.00 0.00 0.00 0.00 0.00 0.00 0.00 0.00
0.00 0.00 0.00 0.00 0.00 0.00 0.00 0.00 0.00 0.00 0.00 0.00 0.00 0.00 0.00 0.00 0.00 0.00 0.00 0.00 0.00 0.00 0.01 0.03 0.06 0.10 0.12 0.11 0.07 0.04 0.04 0.02 0.00 0.00 0.00 0.00 0.00 0.00 0.00 0.00 0.00 0.00 0.00
0.00 0.00 0.00 0.00 0.00 0.00 0.00 0.00 0.00 0.00 0.00 0.00 0.01 0.00 0.00 0.00 0.00 0.00 0.00 0.00 0.00 0.00 0.00 0.01 0.03 0.04 0.05 0.09 0.06 0.01 0.01 0.00 0.00 0.00 0.00 0.00 0.00 0.00 0.00 0.00 0.00 0.00 0.00
0.00 0.00 0.00 0.01 0.00 0.00 0.00 0.00 0.00 0.00 0.00 0.01 0.00 0.01 0.00 0.00 0.00 0.00 0.00 0.00 0.00 0.00 0.00 0.00 0.01 0.02 0.03 0.04 0.06 0.04 0.02 0.01 0.00 0.00 0.00 0.00 0.00 0.00 0.00 0.00 0.00 0.00 0.00
0.00 0.00 0.00 0.01 0.00 0.00 0.00 0.00 0.00 0.00 0.00 0.00 0.00 0.01 0.01 0.00 0.00 0.00 0.00 0.00 0.00 0.00 0.00 0.00 0.00 0.00 0.01 0.03 0.04 0.04 0.02 0.01 0.00 0.00 0.00 0.00 0.00 0.00 0.00 0.00 0.00 0.00 0.00
0.00 0.00 0.00 0.00 0.00 0.01 0.00 0.00 0.00 0.00 0.00 0.00 0.00 0.00 0.01 0.00 0.00 0.00 0.00 0.00 0.00 0.00 0.00 0.00 0.00 0.00 0.00 0.02 0.02 0.03 0.02 0.00 0.00 0.00 0.00 0.00 0.00 0.00 0.00 0.00 0.00 0.00 0.00
0.00 0.00 0.00 0.00 0.00 0.01 0.00 0.00 0.00 0.00 0.00 0.00 0.00 0.00 0.00 0.00 0.00 0.00 0.00 0.00 0.00 0.00 0.00 0.00 0.00 0.00 0.00 0.01 0.01 0.03 0.03 0.03 0.00 0.00 0.00 0.00 0.00 0.00 0.00 0.00 0.00 0.00 0.00
0.00 0.00 0.00 0.00 0.00 0.00 0.00 0.00 0.00 0.00 0.00 0.00 0.00 0.00 0.00 0.00 0.00 0.00 0.00 0.00 0.00 0.00 0.00 0.00 0.00 0.00 0.00 0.00 0.01 0.01 0.02 0.03 0.02 0.00 0.00 0.00 0.00 0.00 0.00 0.00 0.00 0.00 0.00
0.00 0.00 0.00 0.00 0.00 0.00 0.00 0.00 0.00 0.00 0.00 0.00 0.00 0.00 0.00 0.00 0.00 0.00 0.00 0.00 0.00 0.00 0.00 0.00 0.00 0.00 0.00 0.00 0.00 0.00 0.01 0.02 0.03 0.05 0.04 0.01 0.00 0.00 0.00 0.00 0.00 0.00 0.00
0.00 0.00 0.00 0.00 0.00 0.00 0.00 0.00 0.00 0.00 0.00 0.00 0.00 0.00 0.00 0.00 0.00 0.00 0.00 0.00 0.00 0.00 0.00 0.00 0.00 0.00 0.00 0.00 0.00 0.01 0.00 0.01 0.01 0.02 0.05 0.06 0.01 0.00 0.00 0.00 0.00 0.00 0.00
0.00 0.00 0.00 0.00 0.00 0.00 0.00 0.00 0.00 0.00 0.00 0.00 0.00 0.00 0.00 0.00 0.00 0.00 0.00 0.00 0.00 0.00 0.00 0.00 0.00 0.00 0.00 0.00 0.00 0.00 0.01 0.01 0.00 0.00 0.01 0.05 0.03 0.01 0.00 0.00 0.00 0.00 0.00
MSLP
1022.29 1021.56 1020.55 1018.58 1019.21 1018.56 1016.62 1016.35 1015.80 1015.12 1013.43 1013.74 1013.54 1013.94 1014.10 1014.71 1015.18 1015.46 1016.09 1016.88 1017.01 1018.29 1018.22 1018.81 1019.16 1019.91 1020.17 1020.33 1021.14 1021.66 1022.03 1022.49 1022.84 1023.27 1023.67 1023.94 1024.18 1024.49 1024.76 1025.17 1025.63 1025.88 1026.13
1022.69 1022.12 1021.56 1020.98 1020.26 1018.57 1017.58 1017.30 1015.59 1015.18 1013.38 1012.84 1013.16 1013.21 1013.49 1013.92 1014.72 1014.96 1015.44 1016.39 1016.87 1017.53 1018.25 1018.72 1018.92 1019.47 1019.89 1020.08 1020.76 1021.38 1021.76 1022.25 1022.70 1023.18 1023.70 1024.04 1024.27 1024.59 1024.93 1025.36 1025.81 1026.09 1026.31
1022.99 1022.48 1022.18 1021.56 1020.43 1019.38 1019.19 1017.17 1014.19 1015.93 1013.06 1012.46 1012.47 1012.76 1012.99 1013.36 1014.02 1014.74 1015.16 1016.01 1016.42 1016.53 1018.30 1018.82 1018.93 1019.04 1019.48 1019.80 1020.52 1021.09 1021.47 1021.97 1022.56 1023.05 1023.64 1024.08 1024.36 1024.68 1025.13 1025.62 1025.85 1026.16 1026.42
1023.10 1022.55 1022.23 1021.94 1021.13 1019.90 1019.01 1017.49 1015.01 1016.46 1014.50 1012.19 1012.19 1012.47 1012.71 1013.08 1013.61 1013.95 1014.78 1015.35 1015.60 1015.61 1016.55 1018.13 1018.37 1018.57 1019.03 1019.35 1020.20 1020.77 1021.26 1021.66 1022.31 1022.85 1023.46 1024.00 1024.35 1024.72 1025.24 1025.73 1025.93 1026.19 1026.48
1023.37 1022.63 1022.25 1021.91 1021.28 1020.23 1019.05 1018.45 1018.31 1015.77 1014.73 1012.49 1012.20 1012.36 1012.14 1013.04 1013.42 1013.80 1014.22 1014.55 1014.61 1015.18 1014.97 1016.76 1017.38 1018.02 1018.45 1018.97 1019.79 1020.35 1020.89 1021.40 1022.02 1022.58 1023.19 1023.79 1024.22 1024.56 1025.08 1025.72 1026.02 1026.23 1026.49
1023.80 1022.89 1022.31 1021.94 1021.45 1020.51 1019.58 1019.24 1018.10 1016.59 1014.72 1013.52 1012.21 1011.90 1012.51 1012.45 1013.11 1013.50 1013.78 1014.23 1014.25 1014.39 1014.91 1015.94 1016.91 1017.60 1017.95 1018.52 1019.36 1019.97 1020.30 1021.03 1021.67 1022.30 1022.82 1023.45 1023.96 1024.35 1024.98 1025.54 1026.00 1026.26 1026.44
1024.12 1023.41 1023.02 1022.37 1021.60 1021.12 1020.20 1019.26 1018.42 1017.23 1015.64 1014.91 1013.65 1012.72 1012.05 1012.91 1012.99 1013.37 1013.49 1013.76 1014.11 1014.17 1014.48 1015.41 1016.21 1017.16 1017.88 1018.17 1018.84 1019.58 1019.85 1020.50 1021.24 1021.99 1022.46 1023.00 1023.64 1024.14 1024.74 1025.19 1025.77 1026.18 1026.39
1024.40 1023.70 1023.42 1022.90 1022.01 1021.41 1020.73 1019.81 1018.83 1018.47 1017.33 1017.23 1015.05 1013.70 1012.78 1013.15 1012.83 1013.36 1013.32 1013.65 1013.89 1014.21 1014.46 1014.74 1015.62 1016.42 1017.02 1017.68 1018.12 1018.99 1019.48 1019.95 1020.72 1021.50 1022.10 1022.60 1023.20 1023.76 1024.29 1024.90 1025.43 1025.92 1026.35
1024.56 1024.03 1023.56 1023.05 1022.34 1021.71 1021.20 1020.74 1019.98 1019.19 1018.04 1016.92 1015.82 1015.58 1013.97 1013.44 1012.93 1012.86 1012.49 1012.69 1013.28 1013.98 1014.32 1014.38 1014.86 1015.34 1016.02 1016.77 1017.44 1018.26 1019.04 1019.45 1020.10 1020.98 1021.65 1022.20 1022.67 1023.29 1023.75 1024.42 1025.04 1025.59 1026.09
1024.65 1024.11 1023.66 1023.23 1022.60 1021.94 1021.46 1020.94 1020.41 1019.70 1018.89 1017.90 1016.41 1016.14 1016.34 1015.44 1013.37 1012.91 1012.63 1012.48 1012.37 1013.02 1013.67 1014.02 1014.20 1014.87 1015.40 1015.91 1016.68 1017.45 1018.43 1018.97 1019.47 1020.34 1021.05 1021.74 1022.23 1022.75 1023.18 1023.83 1024.53 1025.15 1025.76
1024.80 1024.22 1023.76 1023.18 1022.64 1022.19 1021.65 1021.21 1020.70 1020.13 1019.17 1018.43 1017.72 1016.45 1015.59 1014.62 1013.63 1012.48 1012.33 1012.23 1012.41 1012.46 1013.01 1013.47 1013.82 1014.45 1014.74 1015.19 1015.97 1016.77 1017.67 1018.36 1018.89 1019.59 1020.38 1021.09 1021.72 1022.26 1022.63 1023.23 1023.98 1024.67 1025.29
1024.73 1024.21 1023.64 1023.06 1022.52 1022.11 1021.61 1021.21 1020.97 1020.56 1019.82 1018.87 1018.04 1017.41 1016.95 1016.01 1014.46 1013.82 1013.09 1012.49 1011.96 1012.18 1012.80 1013.16 1013.23 1013.68 1014.02 1014.61 1015.13 1015.81 1016.92 1017.67 1018.32 1018.86 1019.70 1020.31 1021.08 1021.68 1022.23 1022.55 1023.36 1024.09 1024.76
1025.17 1024.40 1023.80 1023.17 1022.59 1021.99 1021.63 1021.31 1021.25 1020.68 1020.04 1019.37 1018.58 1017.91 1017.45 1016.40 1015.75 1014.94 1014.21 1012.20 1011.77 1012.30 1012.52 1012.58 1012.52 1012.52 1013.14 1013.72 1014.34 1015.20 1016.02 1016.79 1017.58 1018.25 1018.93 1019.54 1020.28 1021.03 1021.60 1022.06 1022.51 1023.27 1024.01
1025.58 1024.58 1024.09 1023.43 1022.81 1022.26 1021.78 1021.58 1021.38 1020.76 1019.98 1019.29 1018.73 1018.01 1017.27 1016.64 1016.22 1015.11 1014.88 1013.22 1011.94 1011.92 1012.03 1011.57 1011.71 1012.05 1012.20 1012.82 1013.32 1014.31 1015.04 1015.77 1016.50 1017.33 1018.16 1018.80 1019.49 1020.27 1020.87 1021.45 1021.92 1022.47 1023.22
1025.66 1024.84 1024.24 1023.70 1023.31 1022.74 1022.09 1021.90 1021.43 1020.63 1019.99 1019.13 1018.32 1017.67 1017.35 1016.67 1015.97 1015.69 1014.57 1013.33 1011.97 1011.11 1011.32 1011.29 1011.19 1011.20 1011.51 1012.18 1012.60 1013.50 1014.02 1014.90 1015.64 1016.37 1017.23 1018.01 1018.63 1019.44 1020.06 1020.60 1021.26 1021.80 1022.46
1025.96 1025.14 1024.47 1023.94 1023.48 1022.89 1022.44 1022.18 1021.64 1020.80 1020.08 1019.19 1018.41 1017.74 1017.05 1016.41 1016.04 1015.11 1013.98 1013.06 1011.69 1011.17 1011.17 1011.07 1010.70 1010.54 1010.62 1011.16 1011.59 1012.25 1013.02 1013.72 1014.77 1015.54 1016.31 1017.01 1017.65 1018.34 1019.05 1019.69 1020.37 1021.03 1021.65
1026.09 1025.37 1024.67 1024.03 1023.55 1023.14 1022.67 1022.38 1021.78 1021.03 1020.15 1019.24 1018.46 1017.78 1017.05 1016.45 1015.61 1014.67 1014.07 1013.18 1012.37 1010.68 1010.87 1010.60 1010.96 1010.64 1010.25 1010.25 1010.89 1011.52 1012.14 1013.06 1013.91 1014.68 1015.27 1015.96 1016.66 1017.21 1017.99 1018.65 1019.36 1020.11 1020.83
1026.13 1025.53 1024.81 1024.11 1023.72 1023.33 1023.02 1022.55 1021.86 1021.08 1020.23 1019.37 1018.50 1017.85 1017.15 1016.33 1015.62 1015.11 1014.27 1013.54 1012.45 1010.77 1010.21 1010.47 1010.63 1010.62 1010.50 1010.37 1010.30 1010.77 1011.22 1011.79 1012.53 1013.66 1014.54 1015.00 1015.81 1016.43 1017.08 1017.82 1018.37 1019.10 1019.95
1026.30 1025.69 1025.00 1024.33 1023.82 1023.44 1023.12 1022.70 1022.07 1021.18 1020.32 1019.47 1018.71 1018.00 1017.32 1016.58 1015.87 1015.32 1014.82 1013.96 1012.70 1011.60 1010.14 1010.19 1010.49 1010.06 1010.72 1010.77 1010.35 1010.42 1010.84 1011.30 1011.67 1012.17 1013.46 1014.15 1014.82 1015.67 1016.29 1016.98 1017.65 1018.29 1018.94
1026.53 1025.93 1025.30 1024.70 1024.09 1023.62 1023.31 1022.81 1022.11 1021.15 1020.37 1019.60 1018.88 1018.17 1017.50 1017.02 1016.31 1015.73 1014.82 1013.87 1012.80 1011.80 1010.32 1009.65 1009.78 1010.31 1010.61 1010.53 1010.66 1010.08 1010.48 1010.83 1011.16 1011.56 1012.65 1013.39 1014.13 1014.70 1015.19 1015.86 1016.63 1017.42 1018.00
1026.86 1026.31 1025.74 1025.15 1024.59 1024.02 1023.63 1022.82 1022.09 1021.33 1020.65 1019.94 1019.15 1018.42 1017.86 1017.11 1016.42 1015.76 1015.05 1014.03 1013.43 1012.32 1011.52 1009.68 1009.47 1009.58 1010.10 1010.50 1010.45 1010.13 1009.88 1010.06 1010.40 1010.84 1011.96 1012.97 1013.81 1014.50 1015.05 1015.57 1015.75 1016.49 1017.05
1027.26 1026.73 1026.17 1025.56 1024.93 1024.26 1023.75 1022.96 1022.28 1021.63 1020.88 1020.22 1019.54 1018.72 1017.98 1017.16 1016.23 1015.39 1014.67 1013.86 1012.98 1012.38 1011.82 1011.07 1009.63 1009.49 1009.78 1009.71 1010.04 1010.06 1009.83 1009.27 1009.96 1009.91 1011.05 1011.99 1012.52 1013.08 1013.25 1013.97 1014.35 1015.10 1016.01
1027.58 1027.13 1026.64 1026.03 1025.39 1024.77 1024.08 1023.15 1022.33 1021.70 1021.13 1020.41 1019.71 1018.93 1018.13 1017.39 1016.51 1015.43 1014.27 1013.17 1012.60 1012.66 1011.96 1011.38 1010.80 1008.85 1008.93 1009.35 1009.43 1009.25 1009.38 1009.34 1009.00 1009.24 1009.99 1011.04 1011.87 1012.15 1012.10 1012.41 1013.13 1013.87 1014.64
1027.96 1027.56 1027.03 1026.53 1025.92 1025.17 1024.50 1023.61 1022.59 1021.84 1021.22 1020.65 1019.91 1019.21 1018.53 1017.69 1017.06 1016.02 1014.82 1013.87 1013.10 1012.55 1012.19 1011.81 1011.65 1010.28 1009.78 1009.11 1009.35 1008.72 1009.37 1008.74 1009.23 1009.06 1009.37 1010.10 1011.08 1011.34 1011.38 1011.35 1011.82 1012.56 1013.30
1028.44 1027.94 1027.46 1026.92 1026.26 1025.52 1024.69 1023.76 1022.91 1022.12 1021.49 1020.72 1019.97 1019.50 1018.95 1018.19 1017.30 1016.30 1015.40 1014.45 1013.96 1013.23 1012.45 1012.09 1011.33 1010.20 1010.11 1009.52 1009.24 1009.09 1009.32 1009.04 1009.76 1009.24 1009.18 1009.71 1010.44 1010.88 1010.89 1010.89 1010.97 1011.62 1012.37
1028.96 1028.43 1027.93 1027.30 1026.61 1025.92 1024.95 1023.91 1023.13 1022.54 1021.82 1020.99 1020.17 1019.68 1019.19 1018.51 1017.68 1016.61 1015.68 1015.11 1014.29 1013.76 1012.62 1011.74 1010.28 1009.79 1010.06 1009.67 1009.21 1008.58 1008.18 1008.94 1008.74 1008.74 1008.64 1009.84 1010.01 1010.68 1011.36 1010.70 1010.56 1010.90 1011.65
Thickness
5542 5552 5562 5579 5581 5595 5612 5623 5631 5639 5653 5653 5658 5658 5663 5660 5658 5665 5664 5652 5644 5646 5656 5653 5656 5653 5655 5660 5656 5655 5655 5654 5655 5654 5653 5654 5655 5656 5658 5658 5657 5657 5657
5518 5528 5534 5546 5552 5581 5594 5600 5621 5628 5645 5652 5654 5656 5658 5660 5656 5662 5662 5656 5656 5654 5649 5650 5652 5653 5654 5659 5656 5655 5655 5653 5653 5652 5651 5651 5653 5655 5656 5656 5655 5655 5655
5495 5503 5512 5520 5539 5557 5566 5590 5620 5608 5637 5645 5651 5652 5652 5656 5654 5656 5657 5652 5654 5658 5644 5643 5647 5652 5654 5657 5654 5654 5655 5653 5652 5651 5650 5650 5651 5653 5653 5653 5653 5653 5653
5474 5482 5492 5501 5516 5536 5551 5570 5590 5591 5612 5637 5640 5645 5647 5648 5650 5652 5652 5647 5656 5653 5646 5643 5646 5653 5655 5658 5653 5652 5653 5654 5652 5650 5649 5648 5649 5651 5651 5650 5651 5651 5651
5454 5464 5471 5482 5496 5513 5531 5545 5552 5586 5593 5619 5629 5634 5643 5640 5644 5644 5646 5650 5656 5656 5652 5651 5651 5654 5656 5657 5652 5652 5652 5653 5652 5650 5649 5648 5648 5650 5650 5648 5648 5649 5651
5438 5446 5454 5462 5476 5492 5510 5523 5541 5558 5580 5597 5618 5628 5631 5635 5637 5639 5641 5645 5651 5655 5658 5654 5651 5653 5657 5656 5652 5650 5653 5651 5651 5650 5649 5648 5648 5649 5648 5647 5647 5648 5650
5425 5430 5435 5443 5456 5468 5485 5505 5522 5541 5560 5575 5593 5610 5622 5622 5627 5631 5636 5640 5644 5651 5654 5653 5651 5650 5653 5654 5653 5650 5652 5651 5651 5649 5650 5649 5648 5649 5647 5647 5646 5647 5649
5411 5418 5422 5429 5438 5450 5463 5480 5501 5517 5535 5539 5569 5593 5606 5609 5619 5621 5628 5633 5637 5642 5646 5650 5649 5649 5654 5654 5653 5651 5651 5652 5651 5649 5649 5650 5649 5649 5648 5647 5647 5647 5647
5398 5405 5411 5417 5426 5434 5446 5456 5472 5495 5517 5535 5549 5559 5592 5601 5610 5616 5625 5632 5635 5636 5640 5644 5647 5652 5655 5656 5655 5653 5651 5653 5652 5649 5649 5650 5650 5649 5649 5648 5647 5646 5646
5385 5393 5400 5407 5414 5422 5431 5442 5454 5475 5495 5512 5534 5544 5550 5564 5599 5605 5615 5625 5634 5635 5637 5639 5646 5648 5652 5655 5656 5655 5652 5653 5653 5650 5650 5650 5651 5650 5650 5649 5647 5645 5645
5372 5381 5389 5397 5405 5411 5418 5427 5439 5455 5477 5495 5509 5530 5547 5562 5581 5604 5611 5618 5624 5632 5633 5636 5642 5643 5648 5654 5654 5654 5653 5654 5655 5653 5651 5650 5650 5650 5650 5649 5647 5645 5644
5362 5370 5379 5388 5396 5402 5410 5417 5425 5437 5456 5476 5494 5504 5522 5540 5563 5576 5597 5608 5620 5625 5626 5630 5636 5641 5646 5652 5654 5655 5652 5655 5656 5656 5652 5653 5650 5651 5651 5651 5649 5646 5644
5350 5358 5368 5377 5386 5394 5400 5407 5413 5425 5440 5456 5473 5487 5503 5523 5539 5554 5570 5600 5611 5614 5616 5625 5632 5639 5647 5653 5655 5653 5652 5654 5656 5656 5655 5655 5653 5652 5652 5652 5652 5649 5646
5339 5348 5356 5365 5373 5382 5389 5395 5403 5414 5428 5442 5459 5474 5491 5507 5522 5542 5554 5578 5600 5607 5613 5625 5632 5636 5644 5651 5656 5655 5654 5656 5658 5658 5657 5656 5655 5653 5654 5653 5653 5652 5649
5331 5339 5346 5353 5361 5369 5377 5384 5393 5405 5417 5432 5449 5466 5478 5495 5512 5525 5544 5561 5588 5600 5607 5618 5626 5637 5641 5644 5652 5652 5655 5658 5659 5660 5659 5658 5658 5655 5654 5655 5654 5653 5651
5323 5331 5338 5343 5351 5360 5366 5373 5382 5395 5406 5421 5436 5452 5468 5485 5498 5515 5535 5554 5579 5593 5598 5611 5622 5632 5641 5644 5652 5655 5656 5657 5658 5659 5660 5660 5660 5659 5658 5657 5655 5654 5653
5318 5324 5330 5336 5343 5349 5356 5364 5373 5384 5396 5409 5424 5439 5456 5471 5488 5507 5522 5542 5558 5587 5592 5604 5611 5621 5632 5641 5644 5648 5651 5650 5653 5657 5660 5662 5663 5664 5661 5660 5658 5656 5654
5314 5318 5324 5330 5335 5340 5346 5354 5364 5375 5386 5398 5412 5426 5441 5460 5477 5491 5508 5526 5545 5576 5593 5597 5604 5610 5619 5628 5638 5643 5649 5649 5653 5657 5658 5661 5662 5662 5662 5660 5660 5658 5655
5309 5313 5317 5323 5328 5333 5338 5345 5354 5366 5377 5388 5399 5412 5427 5445 5462 5478 5492 5512 5532 5552 5582 5590 5593 5602 5607 5615 5627 5637 5641 5646 5651 5657 5656 5657 5659 5659 5659 5659 5659 5658 5657
5305 5307 5311 5315 5320 5324 5328 5336 5345 5357 5368 5378 5387 5399 5413 5427 5446 5462 5480 5501 5522 5538 5565 5585 5592 5594 5599 5609 5615 5629 5632 5640 5647 5652 5652 5652 5653 5656 5660 5660 5659 5657 5658
5298 5301 5304 5307 5311 5315 5319 5328 5337 5347 5356 5365 5375 5387 5399 5415 5432 5449 5467 5489 5505 5523 5539 5576 5585 5591 5594 5598 5607 5620 5630 5640 5646 5650 5649 5646 5645 5647 5650 5654 5659 5658 5659
5293 5294 5298 5301 5304 5309 5314 5320 5327 5336 5346 5355 5363 5376 5388 5404 5421 5439 5458 5478 5496 5512 5526 5543 5576 5583 5587 5596 5601 5609 5620 5633 5634 5647 5644 5645 5646 5649 5656 5658 5663 5662 5661
5288 5288 5290 5294 5297 5301 5306 5314 5321 5328 5336 5345 5355 5366 5379 5393 5408 5427 5449 5471 5486 5495 5511 5530 5545 5579 5583 5586 5595 5605 5613 5623 5635 5643 5642 5641 5640 5647 5655 5661 5663 5664 5662
5282 5283 5284 5286 5289 5293 5298 5306 5314 5321 5329 5337 5346 5356 5368 5382 5395 5411 5431 5450 5469 5484 5499 5513 5525 5547 5562 5575 5584 5598 5600 5615 5620 5630 5636 5636 5635 5641 5649 5657 5661 5662 5662
5276 5277 5279 5281 5284 5289 5294 5300 5307 5314 5320 5329 5338 5347 5357 5370 5383 5400 5416 5433 5449 5466 5483 5496 5516 5535 5547 5561 5572 5580 5586 5599 5598 5614 5624 5627 5625 5629 5635 5647 5654 5657 5657
5269 5270 5272 5275 5279 5283 5290 5297 5302 5306 5313 5322 5329 5338 5348 5360 5371 5388 5403 5418 5434 5449 5469 5484 5507 5523 5533 5545 5557 5571 5584 5590 5598 5602 5615 5611 5614 5619 5619 5631 5642 5648 5649